Retour au catalogue

OSCAR 3

ActifRadio amateurLEO
NORAD 1293·PAYLOAD·🇺🇸 United States

Lancé Mar 9, 1965 depuis Vandenberg Space Force Base

Loading…

Prochains Passages (prochaines 24 heures)

TLE

FraisSource: Space-Track

Époque: Sep 14, 2026, 05:13 UTC

1 01293U 65016F   26257.21792766  .00000026  00000-0  46890-4 0  9994
2 01293  70.0729 205.5961 0016588  19.5200 340.6544 14.08509180144624

Suivez OSCAR 3 en temps réel avec AllMySat

Download on the App Store